Location: Baia Mare
(47.6567°N, 23.5850°E)
Time: 20:56:59
(UTC+03:00)

Envisat - Pass Details

Date: 27 January 2022
Orbit: 764 x 765 km, 98.2° (Epoch: 19 May)

Event Time Altitude Azimuth Distance (km) Brightness Sun altitude
Rises 07:18:21 0° 358° (N) 3,242 6.0 -7.1°
Reaches altitude 10° 07:21:58 10° 331° (NNW) 2,311 5.0 -6.5°
Maximum altitude 07:24:08 13° 306° (NW) 2,117 4.7 -6.2°
Drops below altitude 10° 07:26:17 10° 280° (W) 2,305 4.8 -5.8°
Sets 07:29:54 0° 253° (WSW) 3,227 5.8 -5.3°
